Oliver, GA (30449)

6:45 PM EST on February 10, 2016 (GMT -0500)
Plantation | | Change Station
CLOSE
Current Station
Airport
Location: Sylvania,
Elevation: 187 ft
Nearby Weather Stations
Active Advisory: Flood Warning

Elev 187 ft 32.65 °N, 81.60 °W | Updated 10 minutes ago

Clear
Clear
39 °F
Feels Like 33 °F
N
9
Wind Variable Wind from WNW

Today
High -- | Low -- °F
--% Chance of Precip.
Yesterday
High -- | Low -- °F
Precip. -- in
Pressure 30.14 in
Visibility 10.0 miles
Clouds Clear
Windchill 33 °F
Dew Point 17 °F
Humidity 41%
Rainfall 0.00 in
Snow Depth Not available.
7:14 AM 6:07 PM
Waxing Crescent, 8% visible
METAR KJYL 102335Z AUTO 29008KT 10SM CLR 04/M08 A3014 RMK AO2 T00411082
Pressure 30.14 in
Visibility 10.0 miles
Clouds Clear
Windchill 33 °F
Dew Point 17 °F
Humidity 41%
Rainfall 0.00 in
Snow Depth Not available.
7:14 AM 6:07 PM
Waxing Crescent, 8% visible
METAR KJYL 102335Z AUTO 29008KT 10SM CLR 04/M08 A3014 RMK AO2 T00411082

10-Day Weather Forecast

Almanac

Astronomy

Feb. 10, 2016 Rise Set
Actual Time
Civil Twilight
Nautical Twilight
Astronomical Twilight
Moon
Length of Visible Light
Length of Day
Tomorrow will be .
, % of the Moon is Illuminated

Today's Extremes

State Highs State Lows

Community

WunderPhotos

Upload Photos

1,891,935 photos uploaded!

WunderBlog® & News

Nearby

Air Quality

  Air Quality AQ Index Pollutant
Not available.

Snow Depth

Station Depth Elevation

Earthquake Activity

City Distance Mag. Time & Date
Minimum magnitude displayed is 2.5.

Coastal Water Temperatures

Place Temperature

Stations

Nearby Weather Stations

Station Location Temp. Windchill Dew Point Humidity Wind Precip. Elev Updated Type
                   

Watches & Warnings

Flood Warning
Issued: 9:39 AM EST Feb. 10, 2016 – National Weather Service

The Flood Warning continues for
the Savannah River near Clyo.
* At 9 am Wednesday the stage was 15.2 feet.
* Flood stage is 11.0 feet.
* Moderate flooding is occurring.
* Forecast, the river will rise to near 15.2 feet by this afternoon
then begin a slow fall.
* At 14.5 feet, the bottom floor of several riverfront homes along Tom
goethe Road begins to flood.


Lat... Lon 3273 8145 3276 8137 3264 8136 3249 8117
          3246 8125 3261 8144




939 am EST Wed Feb 10 2016

The Flood Warning continues for
the Savannah River at Burtons Ferry.
* At 9 am Wednesday the stage was 15.9 feet.
* Flood stage is 15.0 feet.
* Minor flooding is occurring.
* Forecast, the river will remain nearly steady or slowly fall.
* At 15.0 feet, flooding of some adjacent agricultural lands occurs.
Most boat ramps along the river are unusable.


Lat... Lon 3303 8156 3307 8150 3292 8143 3276 8137
          3273 8145 3289 8151